[[{"header":{"parameterUnit":"m.s-1","parameterCategory":1,"la1":30.2991,"la2":30.254,"lo1":-89.0895,"lo2":-89.0444,"dy":0.0017,"dx":0.0017,"nx":28,"ny":28,"refTime":"2024-06-26T09:00:00:Z","depth":0,"parameterNumber":2,"parameterNumberName":"U-component_of_WINDS"},"data":[0,0,0,0,0,0,0,0,0,0,0,0,0,0,0,0,0,0,0,0,0,0,0,0,0,0,0,0,0,0,0,0,0,0,0,0,0,0,0,0,0,0,0,0,0,0,0,0,0,0,0,0,0,0,0,0,0,0,3.3239,3.324,0,3.3366,3.3367,3.3368,3.3348,3.3346,3.3344,3.3342,3.3478,3.3483,3.3489,0,0,0,0,0,0,0,0,0,0,0,0,0,3.2984,3.2988,3.3238,3.324,3.3242,3.3365,3.3367,3.3369,3.3349,3.3346,3.3343,3.3341,3.3476,3.3482,3.3489,0,0,0,0,0,0,0,0,0,0,0,0,0,3.3101,3.299,3.3238,3.3246,3.3248,3.3365,3.3367,3.3369,3.3349,3.3346,3.3343,3.3339,3.3473,3.3482,3.349,3.3608,0,0,3.3516,3.352,0,0,0,0,0,0,0,0,3.3094,3.311,3.3244,3.3246,3.3248,3.3337,3.3327,3.345,3.335,3.3311,3.3342,3.3338,3.3434,3.3446,3.3477,3.3615,3.3621,3.3517,3.3522,3.3526,3.3528,0,0,0,0,0,0,0,3.3086,3.3105,3.3289,3.3245,3.3248,3.3245,3.3258,3.335,3.339,3.3314,3.3313,3.3328,3.3435,3.3469,3.348,3.3623,3.3517,3.3524,3.3529,3.3533,3.3864,3.3867,0,0,0,0,0,0,3.3075,3.3098,3.3285,3.3293,3.3161,3.3253,3.3267,3.3312,3.3389,3.3397,3.3331,3.3327,3.3456,3.347,3.3485,3.3627,3.3526,3.3533,3.3538,3.386,3.3865,3.3869,0,0,0,0,0,0,3.307,3.3092,3.328,3.3195,3.3219,3.326,3.3311,3.3317,3.335,3.3401,3.3408,3.3358,3.3454,3.3473,3.3577,3.3631,3.3537,3.3545,3.3856,3.3862,3.3867,3.3914,0,0,0,0,0,0,3.3062,3.309,3.3134,3.3196,3.3223,3.3369,3.3315,3.3321,3.3364,3.336,3.3428,3.3436,3.3453,3.3565,3.3586,3.3641,3.3552,3.3851,3.3858,3.3865,3.3907,3.392,3.3931,0,0,0,0,0,3.3053,3.3143,3.3136,3.3159,3.3279,3.3372,3.3387,3.3403,3.3369,3.3414,3.3447,3.3434,3.3623,3.3576,3.3599,3.3658,3.3848,3.3856,3.3864,3.3902,3.3918,3.3931,0,0,0,0,0,0,3.3088,3.3152,3.3144,3.3257,3.3309,3.3368,3.3425,3.3419,3.3483,3.3476,3.3494,3.351,3.3616,3.3648,3.3594,3.3777,3.3731,3.3744,3.3751,3.3766,3.3778,3.3767,3.3559,0,0,0,0,0,3.3109,3.3177,3.323,3.3324,3.335,3.3384,3.3425,3.3432,3.3487,3.3509,3.355,3.3605,3.3677,3.3724,3.3793,3.3913,3.3927,3.3965,3.3977,3.3986,3.3997,3.4062,3.408,3.3896,3.3896,3.3896,0,0,3.3152,3.3195,3.3238,3.3332,3.3373,3.3445,3.3402,3.348,3.3534,3.3522,3.3622,3.3654,3.3718,3.383,3.3882,3.386,3.4051,3.3997,3.4004,3.401,3.4073,3.409,3.4105,3.3902,3.3901,3.39,0,0,3.3267,3.3307,3.3389,3.3431,3.3493,3.3515,3.3535,3.3596,3.3616,3.3716,3.3709,3.3774,3.3898,3.3943,3.3982,3.4115,3.4106,3.4138,3.4198,3.4262,3.4276,3.4289,3.4335,3.4352,3.4149,3.4149,3.4149,0,3.3313,3.3419,3.3433,3.3511,3.3553,3.3545,3.3629,3.367,3.3752,3.3782,3.3756,3.391,3.3953,3.4075,3.4107,3.414,3.4164,3.4129,3.4273,3.4286,3.4298,3.4342,3.436,3.4152,3.4152,3.4151,3.4151,0,3.3473,3.3547,3.3606,3.3684,3.3733,3.3814,3.3841,3.389,3.3893,3.3918,3.4021,3.4072,3.415,3.4181,3.4186,3.4304,3.4289,3.4268,3.4222,3.4318,3.436,3.4378,3.4157,3.4156,3.4155,3.4154,0,0,3.3611,3.3696,3.3717,3.3752,3.3821,3.3879,3.3961,3.4035,3.4076,3.4134,3.4203,3.4308,3.4289,3.4333,3.4344,3.44,3.4501,3.4372,3.4374,3.4393,3.4633,3.4647,3.4666,3.4496,3.4499,3.4502,3.4627,0,3.3732,3.3873,3.3888,3.4015,3.4083,3.4077,3.4148,3.4199,3.4225,3.4288,3.4318,3.4391,3.4361,3.4388,3.4443,3.4477,3.4549,3.4468,3.456,3.4563,3.4542,3.4688,3.4703,3.4819,3.4644,3.4647,3.4649,0,3.389,3.395,3.4083,3.4142,3.4171,3.4235,3.4305,3.4365,3.4423,3.4438,3.4488,3.4491,3.4577,3.4529,3.4647,3.4592,3.4631,3.4653,3.4658,3.4666,3.461,3.4698,3.4856,3.4873,3.4675,3.4673,3.4671,0,3.3975,3.4091,3.4185,3.4215,3.4287,3.4331,3.4363,3.4418,3.4462,3.4525,3.4553,3.4626,3.4665,3.4722,3.4745,3.4708,3.4862,3.4816,3.4876,3.4876,3.4907,3.4904,3.5072,3.4936,3.4936,3.4936,3.4935,0,3.4107,3.4188,3.4224,3.4281,3.4373,3.4391,3.4481,3.4512,3.4561,3.4625,3.4626,3.4687,3.4715,3.4781,3.48,3.4894,3.4913,3.4928,3.4931,3.4926,3.4924,3.4951,3.4942,3.494,3.4939,3.4938,3.4937,0,3.4216,3.4244,3.4345,3.4405,3.4422,3.4486,3.4538,3.4595,3.462,3.4702,3.4723,3.4764,3.4841,3.487,3.4966,3.4978,3.5087,3.5086,3.5066,3.5067,3.5125,3.5118,3.5314,3.534,3.5189,3.519,3.5191,0,3.4297,3.4359,3.4425,3.4467,3.45,3.4569,3.4614,3.4635,3.4682,3.4753,3.4801,3.4878,3.494,3.5065,3.5104,3.5177,3.5176,3.5239,3.5187,3.5179,3.5174,3.5169,3.5175,3.5248,3.525,3.5251,3.5252,0,3.4436,3.4447,3.451,3.4579,3.4632,3.4687,3.4741,3.4777,3.4807,3.486,3.4938,3.4986,3.5082,3.5159,3.5234,3.5269,3.5266,3.5269,3.5286,3.528,3.5266,3.5272,3.5091,3.5263,3.5262,3.5261,3.5261,3.526,3.4532,3.4587,3.4641,3.4712,3.4755,3.4806,3.4861,3.4894,3.4959,3.5038,3.5048,3.5131,3.5189,3.5289,3.5327,3.5394,3.5377,3.5403,3.5409,3.5415,3.5418,3.5257,3.5408,3.5408,3.5408,3.5408,3.5407,0,3.467,3.4705,3.477,3.4845,3.4901,3.4893,3.4953,3.5,3.5073,3.5127,3.5188,3.5278,3.5352,3.5397,3.5472,3.5517,3.5517,3.5536,3.5531,3.5539,3.543,3.5406,3.5534,3.5534,3.5534,3.5534,3.5534,3.5534,3.4748,3.4839,3.4857,3.497,3.5005,3.5086,3.512,3.5168,3.521,3.531,3.5371,3.54,3.545,3.5529,3.5597,3.5608,3.5635,3.5654,3.5664,3.556,3.5547,3.5535,3.5512,3.5661,3.5661,3.5768,3.5769,3.577]},{"header":{"parameterUnit":"m.s-1","parameterCategory":1,"la1":30.2991,"la2":30.254,"lo1":-89.0895,"lo2":-89.0444,"dy":0.0017,"dx":0.0017,"nx":28,"ny":28,"refTime":"2024-06-26T09:00:00:Z","depth":0,"parameterNumber":3,"parameterNumberName":"V-component_of_WINDS"},"data":[0,0,0,0,0,0,0,0,0,0,0,0,0,0,0,0,0,0,0,0,0,0,0,0,0,0,0,0,0,0,0,0,0,0,0,0,0,0,0,0,0,0,0,0,0,0,0,0,0,0,0,0,0,0,0,0,0,0,4.113,4.1131,0,4.1282,4.1283,4.1285,4.1321,4.132,4.1319,4.1318,4.1464,4.1469,4.1474,0,0,0,0,0,0,0,0,0,0,0,0,0,4.0859,4.0863,4.113,4.1131,4.1133,4.1281,4.1284,4.1286,4.1321,4.132,4.1318,4.1317,4.1463,4.1468,4.1474,0,0,0,0,0,0,0,0,0,0,0,0,0,4.099,4.0865,4.1129,4.1169,4.1174,4.1281,4.1284,4.1286,4.1321,4.1319,4.1318,4.1317,4.1461,4.1468,4.1475,4.1551,0,0,4.1497,4.1501,0,0,0,0,0,0,0,0,4.0982,4.1,4.1161,4.1166,4.1172,4.1281,4.1242,4.1374,4.1321,4.1265,4.1318,4.1316,4.1404,4.1416,4.1447,4.1557,4.1564,4.1498,4.1502,4.1506,4.1508,0,0,0,0,0,0,0,4.0973,4.0993,4.1189,4.1163,4.117,4.1175,4.1193,4.1267,4.1341,4.127,4.1273,4.1291,4.1407,4.144,4.1451,4.1566,4.1498,4.1504,4.1509,4.1512,4.174,4.1742,0,0,0,0,0,0,4.0958,4.0985,4.1185,4.1194,4.1072,4.1182,4.1201,4.1247,4.134,4.1353,4.1292,4.1292,4.1429,4.1443,4.1456,4.1548,4.1506,4.1512,4.1517,4.1738,4.174,4.1742,0,0,0,0,0,0,4.0953,4.0976,4.1179,4.1091,4.1117,4.1188,4.124,4.1251,4.1285,4.1357,4.1369,4.1314,4.1428,4.1446,4.1526,4.1554,4.1516,4.1522,4.1736,4.1739,4.1741,4.1733,0,0,0,0,0,0,4.0945,4.0974,4.1006,4.1091,4.1122,4.125,4.1242,4.1255,4.1299,4.13,4.1381,4.1392,4.1428,4.1515,4.1534,4.1563,4.1528,4.1734,4.1738,4.1741,4.1731,4.1735,4.1738,0,0,0,0,0,4.0935,4.0997,4.1008,4.1031,4.1164,4.1251,4.1268,4.1311,4.1301,4.1332,4.1377,4.139,4.1548,4.1523,4.1544,4.1576,4.1733,4.1737,4.174,4.173,4.1734,4.1738,0,0,0,0,0,0,4.0911,4.1009,4.1022,4.1114,4.1174,4.1257,4.1298,4.1315,4.1377,4.1375,4.1422,4.144,4.1517,4.1554,4.1525,4.1651,4.1639,4.1648,4.1624,4.1629,4.1633,4.1621,4.1534,0,0,0,0,0,4.0916,4.0982,4.1063,4.1136,4.1166,4.1226,4.1266,4.1293,4.1357,4.1381,4.1433,4.1491,4.1553,4.1594,4.1655,4.1737,4.1752,4.1768,4.1772,4.1775,4.178,4.1822,4.1829,4.1755,4.1755,4.1755,0,0,4.0928,4.099,4.1028,4.1133,4.1183,4.1246,4.1248,4.1316,4.1362,4.1391,4.147,4.1509,4.1577,4.1657,4.1695,4.1691,4.1804,4.1779,4.1781,4.1786,4.1827,4.1834,4.184,4.1757,4.1757,4.1757,0,0,4.0981,4.1037,4.1102,4.1152,4.1228,4.1267,4.1283,4.1363,4.1391,4.1471,4.1494,4.1547,4.1655,4.1701,4.1738,4.1805,4.1818,4.1824,4.1842,4.1882,4.1888,4.1893,4.1914,4.1921,4.183,4.183,4.183,0,4.0986,4.1086,4.1132,4.1199,4.1242,4.1273,4.1337,4.1382,4.1473,4.1501,4.1495,4.1629,4.1677,4.1766,4.1782,4.1813,4.1828,4.1815,4.1884,4.1889,4.1895,4.1915,4.1923,4.183,4.183,4.183,4.183,0,4.1085,4.1153,4.1196,4.1285,4.1334,4.1398,4.1451,4.1493,4.1515,4.1554,4.1632,4.1691,4.1763,4.1786,4.1808,4.1878,4.1873,4.1875,4.1864,4.1901,4.1921,4.1929,4.183,4.183,4.183,4.183,0,0,4.1129,4.1242,4.1256,4.1296,4.138,4.1432,4.1496,4.1569,4.1602,4.1663,4.1715,4.1804,4.1806,4.1848,4.1875,4.191,4.1955,4.1908,4.191,4.1912,4.2031,4.2028,4.2036,4.1964,4.1966,4.1967,4.2024,0,4.1191,4.131,4.1352,4.1448,4.1509,4.1538,4.1592,4.1648,4.1685,4.1739,4.1778,4.1839,4.1839,4.1864,4.19,4.1942,4.1979,4.1939,4.2009,4.2011,4.199,4.2047,4.2045,4.2096,4.2033,4.2034,4.2035,0,4.128,4.1343,4.1446,4.152,4.1547,4.1596,4.1664,4.1717,4.1778,4.1802,4.1848,4.1872,4.1935,4.192,4.2006,4.1977,4.2008,4.2032,4.2035,4.2042,4.2025,4.2053,4.2114,4.212,4.2048,4.2047,4.2046,0,4.1297,4.1408,4.1483,4.1516,4.1605,4.1638,4.1676,4.1737,4.1777,4.1835,4.186,4.1924,4.1959,4.2006,4.2044,4.2031,4.2124,4.2114,4.2143,4.2141,4.216,4.2158,4.2224,4.2183,4.2183,4.2183,4.2183,0,4.1361,4.1422,4.1492,4.1538,4.1605,4.1651,4.1715,4.1755,4.1807,4.1858,4.1886,4.1932,4.1982,4.2033,4.2063,4.2127,4.2142,4.216,4.2167,4.2157,4.2155,4.2177,4.2174,4.2185,4.2185,4.2184,4.2184,0,4.1393,4.1443,4.1526,4.1603,4.1624,4.1669,4.1734,4.1777,4.1814,4.1878,4.1895,4.1952,4.2014,4.2057,4.2136,4.2156,4.2224,4.2231,4.2204,4.2207,4.2232,4.2228,4.2314,4.2326,4.2278,4.2278,4.2279,0,4.1429,4.1477,4.1559,4.1597,4.1635,4.1695,4.1736,4.1781,4.1822,4.1894,4.1927,4.1991,4.2045,4.2141,4.2187,4.2246,4.2254,4.228,4.2263,4.225,4.2251,4.2247,4.2251,4.2282,4.2282,4.2282,4.2283,0,4.1488,4.151,4.157,4.1637,4.1686,4.174,4.1795,4.1823,4.1877,4.192,4.1985,4.2027,4.2107,4.2168,4.2232,4.2266,4.2282,4.2288,4.2297,4.2286,4.2267,4.2275,4.2208,4.2285,4.2285,4.2285,4.2285,4.2285,4.1522,4.1564,4.1628,4.1692,4.1739,4.1788,4.1832,4.1875,4.193,4.2001,4.2023,4.2089,4.2145,4.2232,4.2267,4.2317,4.2315,4.2329,4.2332,4.2335,4.2333,4.2261,4.2329,4.2328,4.2328,4.2328,4.2328,0,4.158,4.1622,4.1681,4.1757,4.1806,4.182,4.188,4.1919,4.1978,4.203,4.2082,4.2154,4.2213,4.2263,4.2324,4.2353,4.2361,4.2367,4.2364,4.2371,4.2333,4.2318,4.2359,4.2359,4.2359,4.2359,4.2359,4.2359,4.1616,4.1687,4.1716,4.1808,4.1849,4.1916,4.1949,4.1993,4.2035,4.2115,4.2165,4.2199,4.2249,4.2312,4.2366,4.2378,4.2398,4.2402,4.2416,4.2378,4.2374,4.2371,4.2357,4.2406,4.2406,4.245,4.2451,4.2451]}]]